Stations météo

Publicité
Nice, France (7690): Température de l'air & dewpoint: 26.03.2020 10:00:00 - 01.04.2020 10:00:00 (CEST)Nice, France (7690): Température de l'air 5cm: 26.03.2020 10:00:00 - 01.04.2020 10:00:00 (CEST)Nice, France (7690): Température de l'air -20cm & Température de l'air -100cm: 26.03.2020 10:00:00 - 01.04.2020 10:00:00 (CEST)Nice, France (7690): Vitesse du vent & gusts: 26.03.2020 10:00:00 - 01.04.2020 10:00:00 (CEST)Nice, France (7690): Direction du vent: 26.03.2020 10:00:00 - 01.04.2020 10:00:00 (CEST)Nice, France (7690): reduced air pressure: 26.03.2020 10:00:00 - 01.04.2020 10:00:00 (CEST)Nice, France (7690): visibility: 26.03.2020 10:00:00 - 01.04.2020 10:00:00 (CEST)Nice, France (7690): Ensoleillement: 26.03.2020 10:00:00 - 01.04.2020 10:00:00 (CEST)Nice, France (7690): Quantités de précipitations: 26.03.2020 10:00:00 - 01.04.2020 10:00:00 (CEST)
Date & Time tt [°C] td [°C] tt 5cm [°C] tt -20cm [°C] tt -100cm [°C] ff [km/h] ff [knt] fx [km/h] fx [knt] dd ppp [hPa] vv [km] sd [min] rr [mm]
01.04.2020 10:00:00 - - - - - - - - - - - - - -
01.04.2020 09:00:00 10,0 0,0 9,8 13,7 14,0 41 22 55 30 E 1020,8 30 0 0,0
01.04.2020 08:00:00 10,0 0,3 9,6 13,7 13,9 40 22 60 32 E 1020,3 30 0 0,0
01.04.2020 07:00:00 10,2 0,8 9,7 13,7 13,9 45 25 58 32 E 1020,0 20 0 0,0
01.04.2020 06:00:00 10,6 0,6 10,3 13,7 13,9 46 25 61 33 E 1019,8 19 0 0,0
01.04.2020 05:00:00 10,8 1,9 10,5 13,7 13,9 42 23 57 31 E 1020,2 19 0 0,0
01.04.2020 04:00:00 11,1 2,9 10,8 13,7 13,9 46 25 62 33 E 1020,2 20 0 0,0
01.04.2020 03:00:00 11,4 1,3 11,1 13,7 13,9 41 22 63 34 E 1020,4 20 0 0,0
01.04.2020 02:00:00 11,6 1,8 11,3 13,7 13,9 50 27 63 34 E 1020,1 20 0 0,0
01.04.2020 01:00:00 11,9 2,9 11,5 13,7 13,9 45 25 57 31 E 1020,2 20 0 0,0
01.04.2020 00:00:00 12,3 3,0 11,8 13,7 13,9 42 23 53 29 E 1020,0 49 0 0,0
31.03.2020 23:00:00 12,5 5,6 11,0 13,7 13,9 22 12 35 19 E 1019,8 41 0 0,0
31.03.2020 22:00:00 11,7 5,6 11,0 13,7 13,9 4 2 8 4 NNE 1019,3 59 0 0,0
31.03.2020 21:00:00 11,9 5,5 11,5 13,7 13,9 6 3 18 10 NNE 1018,7 59 0 0,0
31.03.2020 20:00:00 12,0 6,3 11,7 13,7 13,9 11 6 15 8 NW 1018,0 55 0 0,0
31.03.2020 19:00:00 12,6 4,8 12,5 13,6 13,9 3 1 27 15 ESE 1017,6 30 0 0,0
31.03.2020 18:00:00 12,6 6,2 12,6 13,7 13,9 21 11 32 18 ESE 1017,5 30 0 0,0
31.03.2020 17:00:00 12,8 6,2 12,9 13,7 13,9 22 12 34 18 ESE 1017,5 30 0 0,0
31.03.2020 16:00:00 13,2 7,0 14,1 13,6 13,8 6 4 14 7 NW 1017,5 30 0 0,0
31.03.2020 15:00:00 13,1 6,7 13,5 13,7 13,9 4 2 25 13 S 1017,9 30 0 0,0
31.03.2020 14:00:00 12,7 8,2 13,0 13,6 13,8 21 11 28 15 SE 1018,0 30 0 0,0
31.03.2020 13:00:00 12,4 7,3 12,5 13,6 13,8 20 11 32 17 ESE 1018,1 30 0 0,0
31.03.2020 12:00:00 12,4 8,1 12,2 13,6 13,8 21 12 30 16 ESE 1017,9 25 0 0,0
31.03.2020 11:00:00 11,9 8,6 10,8 13,6 13,8 0 0 12 7 N 1017,6 25 0 0,4
31.03.2020 10:00:00 11,4 9,1 10,7 13,6 13,8 7 4 14 7 WNW 1017,3 7 0 0,8
31.03.2020 09:00:00 12,2 9,4 11,2 13,6 13,8 10 6 23 13 E 1016,5 20 0 0,0
31.03.2020 08:00:00 12,3 9,5 11,4 13,6 13,8 19 11 25 14 E 1016,1 20 0 0,0
31.03.2020 07:00:00 12,5 10,0 10,8 13,5 13,8 22 12 28 15 E 1015,5 20 0 0,0
31.03.2020 06:00:00 11,2 8,6 10,1 13,5 13,8 6 3 13 7 NNW 1015,0 20 0 0,0
31.03.2020 05:00:00 10,7 8,5 9,8 13,5 13,8 10 6 15 8 NW 1014,8 50 0 0,0
31.03.2020 04:00:00 10,7 8,6 9,8 13,5 13,8 11 6 16 9 NNW 1014,7 43 0 0,0
31.03.2020 03:00:00 10,7 8,8 9,9 13,5 13,8 13 7 18 10 NNW 1014,9 39 0 0,0
31.03.2020 02:00:00 10,8 9,1 10,0 13,5 13,8 11 6 14 7 NNW 1014,8 32 0 0,0
31.03.2020 01:00:00 11,3 9,6 10,6 13,5 13,8 9 5 13 7 NNW 1014,7 30 0 0,0
31.03.2020 00:00:00 12,0 10,4 11,5 13,4 13,7 9 5 13 7 NNW 1014,5 16 0 0,0
30.03.2020 23:00:00 12,3 10,7 11,5 13,4 13,8 8 5 11 6 NW 1014,1 20 0 0,0
30.03.2020 22:00:00 13,0 11,2 12,5 13,4 13,7 7 4 9 5 NNW 1013,9 12 0 0,0
30.03.2020 21:00:00 13,7 11,6 12,7 13,4 13,8 4 2 10 6 NNW 1013,6 12 0 0,2
30.03.2020 20:00:00 14,1 11,6 12,8 13,4 13,7 5 3 9 5 SW 1013,3 12 0 0,4
30.03.2020 19:00:00 14,2 11,2 14,5 13,4 13,7 8 4 13 7 S 1013,1 20 0 0,0
30.03.2020 18:00:00 14,5 11,5 16,0 13,4 13,7 11 6 14 8 S 1012,9 20 5 0,0
30.03.2020 17:00:00 14,8 10,8 17,7 13,4 13,7 9 5 14 7 S 1012,6 20 20 0,0
30.03.2020 16:00:00 15,2 11,0 17,7 13,4 13,8 9 5 12 6 SSE 1012,8 20 19 0,0
30.03.2020 15:00:00 15,3 11,1 17,9 13,3 13,7 9 5 15 8 SE 1013,2 20 14 0,0
30.03.2020 14:00:00 15,1 10,9 18,1 13,3 13,7 11 6 14 8 SE 1013,5 20 9 0,0
30.03.2020 13:00:00 15,2 10,6 19,4 13,3 13,7 11 6 15 8 E 1013,8 20 54 0,0
30.03.2020 12:00:00 15,3 10,7 17,9 13,3 13,7 10 6 16 8 ESE 1013,9 20 57 0,0
30.03.2020 11:00:00 14,4 10,4 16,3 13,3 13,7 13 7 19 10 E 1013,7 20 15 0,0
30.03.2020 10:00:00 13,9 10,7 13,9 13,3 13,7 13 7 18 10 E 1013,1 20 12 0,0
30.03.2020 09:00:00 13,3 11,0 11,6 13,3 13,7 15 8 19 11 E 1012,5 20 0 0,0
30.03.2020 08:00:00 11,9 10,0 9,3 13,3 13,7 6 3 8 5 NNE 1012,0 20 0 0,0
30.03.2020 07:00:00 11,0 9,3 9,3 13,2 13,7 7 4 10 6 NE 1011,5 30 0 0,0
30.03.2020 06:00:00 11,6 9,7 9,4 13,2 13,7 4 2 8 5 NNE 1011,3 30 0 0,0
30.03.2020 05:00:00 11,9 9,8 10,4 13,2 13,7 7 4 9 5 NW 1011,4 19 0 0,0
30.03.2020 04:00:00 12,6 10,1 11,1 13,2 13,7 5 3 7 4 NE 1011,5 20 0 0,0
30.03.2020 03:00:00 12,5 10,4 10,6 13,2 13,7 0 0 4 2 N 1011,8 18 0 0,0
30.03.2020 02:00:00 12,6 10,3 10,5 13,1 13,7 2 1 4 2 ENE 1012,0 25 0 0,0
30.03.2020 01:00:00 12,8 10,3 10,3 13,1 13,7 4 2 5 3 NE 1012,1 34 0 0,0
30.03.2020 00:00:00 13,3 10,7 11,5 13,1 13,7 2 1 4 2 ESE 1012,3 37 0 0,0
29.03.2020 23:00:00 13,4 10,6 12,5 13,1 13,7 0 0 5 3 N 1012,4 37 0 0,0
29.03.2020 22:00:00 13,7 10,9 12,9 13,0 13,7 4 2 9 5 SSE 1012,3 40 0 0,0
29.03.2020 21:00:00 13,8 11,0 13,4 13,0 13,7 7 4 9 5 S 1012,0 38 0 0,0
29.03.2020 20:00:00 13,9 10,9 13,7 13,0 13,7 5 3 7 4 S 1011,7 37 0 0,0
29.03.2020 19:00:00 14,1 10,7 14,6 13,1 13,7 4 2 9 5 S 1011,5 30 1 0,0
29.03.2020 18:00:00 14,5 10,7 16,9 13,0 13,7 6 3 10 5 SSE 1011,7 30 25 0,0
29.03.2020 17:00:00 15,2 10,8 21,7 13,0 13,7 9 5 11 6 SSE 1012,0 30 60 0,0
29.03.2020 16:00:00 15,3 10,3 21,5 13,0 13,7 9 5 13 7 SE 1012,3 25 60 0,0
29.03.2020 15:00:00 15,6 11,0 20,7 13,0 13,7 11 6 21 11 ESE 1012,7 25 60 0,0
29.03.2020 14:00:00 15,5 11,3 20,4 13,0 13,7 18 10 23 12 ESE 1013,2 25 60 0,0
29.03.2020 13:00:00 15,4 11,4 20,1 13,0 13,7 18 10 23 12 E 1013,4 25 60 0,0
29.03.2020 12:00:00 15,1 11,1 19,1 13,0 13,6 18 10 25 13 E 1013,6 25 60 0,0
29.03.2020 11:00:00 14,8 10,8 18,0 13,0 13,7 20 11 23 12 E 1013,7 30 60 0,0
29.03.2020 10:00:00 14,0 9,6 15,8 13,0 13,6 13 7 18 10 ENE 1013,7 30 60 0,0
29.03.2020 09:00:00 12,2 5,6 10,5 13,0 13,7 8 5 13 7 NNW 1013,6 40 40 0,0
29.03.2020 08:00:00 10,4 4,5 8,4 12,9 13,7 11 6 15 8 NNW 1013,5 40 4 0,0
29.03.2020 07:00:00 10,2 4,6 8,1 12,9 13,7 6 3 11 6 NNW 1013,3 40 0 0,0
29.03.2020 06:00:00 10,4 5,0 9,2 12,9 13,7 9 5 18 10 NNW 1013,3 40 0 0,0
29.03.2020 05:00:00 10,9 5,2 9,3 12,9 13,7 16 9 20 11 NW 1013,6 40 0 0,0
29.03.2020 04:00:00 11,4 5,5 10,1 12,9 13,7 13 7 21 11 NNW 1013,8 25 0 0,0
29.03.2020 03:00:00 11,6 5,5 9,5 12,9 13,7 16 9 21 12 NNW 1014,1 25 0 0,0
29.03.2020 02:00:00 11,4 5,7 9,6 12,9 13,7 8 4 19 10 NNW 1014,3 25 0 0,0
29.03.2020 01:00:00 11,7 6,0 10,5 12,8 13,7 13 7 19 10 NNW 1014,2 25 0 0,0
29.03.2020 00:00:00 11,8 6,3 10,8 12,9 13,7 14 8 18 10 NNW 1014,3 25 0 0,0
28.03.2020 23:00:00 12,0 6,7 10,9 12,8 13,7 14 8 17 9 NNW 1014,4 19 0 0,0
28.03.2020 22:00:00 12,5 9,1 10,6 12,8 13,7 8 5 11 6 NNW 1014,5 25 0 0,0
28.03.2020 21:00:00 12,9 10,1 11,3 12,8 13,7 7 4 9 5 NE 1014,3 25 0 0,0
28.03.2020 20:00:00 14,2 10,8 13,2 12,8 13,7 6 3 16 9 NE 1014,0 25 24 0,0
28.03.2020 19:00:00 14,8 10,8 16,6 12,8 13,7 12 7 20 11 SSW 1013,7 25 50 0,0
28.03.2020 18:00:00 15,3 9,9 16,3 12,8 13,7 16 9 24 13 SW 1014,0 25 24 0,0
28.03.2020 17:00:00 16,1 9,7 18,2 12,8 13,7 20 11 30 16 SSW 1014,2 25 47 0,0
28.03.2020 16:00:00 15,9 9,3 21,5 12,8 13,7 23 13 31 17 SW 1014,3 25 60 0,0
28.03.2020 15:00:00 15,9 9,3 21,9 12,8 13,7 18 10 29 15 SSW 1014,8 30 60 0,0
28.03.2020 14:00:00 15,4 10,2 21,8 12,8 13,7 22 12 28 15 SSW 1015,2 30 60 0,0
28.03.2020 13:00:00 15,2 9,5 22,3 12,8 13,7 18 10 22 12 SSW 1015,4 30 60 0,0
28.03.2020 12:00:00 15,0 8,5 21,1 12,8 13,7 12 6 17 9 S 1015,7 30 60 0,0
28.03.2020 11:00:00 14,2 7,5 18,5 12,8 13,7 15 8 18 10 SSW 1015,4 30 60 0,0
28.03.2020 10:00:00 13,8 3,3 15,0 12,7 13,8 13 7 21 11 NW 1015,3 30 60 0,0
28.03.2020 09:00:00 11,8 3,8 10,8 12,7 13,7 14 8 23 12 NNW 1015,3 30 60 0,0
28.03.2020 08:00:00 10,1 3,6 9,2 12,7 13,7 19 10 27 15 NW 1015,4 30 20 0,0
28.03.2020 07:00:00 10,5 4,2 9,5 12,7 13,7 16 9 22 12 NW 1015,4 30 0 0,0
28.03.2020 06:00:00 11,2 5,1 10,0 12,7 13,7 14 7 17 9 NW 1015,5 30 0 0,0
28.03.2020 05:00:00 11,0 5,7 10,0 12,7 13,7 9 5 13 7 NW 1015,6 38 0 0,0
28.03.2020 04:00:00 11,8 5,6 10,7 12,7 13,7 5 3 9 5 NW 1015,8 37 0 0,0
28.03.2020 03:00:00 12,1 5,7 11,4 12,7 13,8 8 4 16 9 NNW 1015,6 32 0 0,0
28.03.2020 02:00:00 12,7 5,4 11,9 12,7 13,7 4 2 17 9 W 1015,7 24 0 0,0
28.03.2020 01:00:00 13,3 5,2 11,8 12,7 13,8 14 7 21 12 WNW 1015,7 55 0 0,0
28.03.2020 00:00:00 12,8 6,6 11,9 12,7 13,8 9 5 13 7 W 1015,7 42 0 0,0
27.03.2020 23:00:00 12,9 7,3 12,1 12,7 13,8 7 4 13 7 W 1015,2 48 0 0,0
27.03.2020 22:00:00 13,5 7,3 13,0 12,7 13,8 11 6 19 10 W 1014,4 58 0 0,0
27.03.2020 21:00:00 13,8 7,8 13,2 12,7 13,8 16 9 22 12 W 1014,1 52 0 0,0
27.03.2020 20:00:00 14,1 8,3 13,6 12,7 13,8 16 8 22 12 WSW 1013,2 30 0 0,0
27.03.2020 19:00:00 14,6 9,0 14,8 12,7 13,8 8 4 17 9 WSW 1012,4 30 0 0,0
27.03.2020 18:00:00 14,7 8,0 16,7 12,7 13,8 13 7 21 11 S 1011,7 30 9 0,0
27.03.2020 17:00:00 15,4 9,1 17,8 12,7 13,8 9 5 18 10 S 1011,4 30 16 0,0
27.03.2020 16:00:00 15,5 7,5 20,5 12,7 13,8 14 8 22 12 S 1011,6 30 51 0,0
27.03.2020 15:00:00 14,8 4,5 17,1 12,7 13,8 8 5 14 8 W 1011,9 30 4 0,0
27.03.2020 14:00:00 13,6 2,5 16,5 12,7 13,9 3 1 11 6 S 1012,2 30 0 0,0
27.03.2020 13:00:00 13,5 3,3 14,7 12,7 13,8 11 6 16 9 WNW 1011,6 30 0 0,0
27.03.2020 12:00:00 12,8 1,8 13,5 12,7 13,9 3 1 13 7 S 1011,9 30 0 0,0
27.03.2020 11:00:00 11,7 2,2 10,5 12,7 13,9 9 5 20 11 WNW 1011,2 30 0 0,0
27.03.2020 10:00:00 10,4 1,7 9,4 12,7 13,9 13 7 20 11 WNW 1010,8 30 0 0,0
27.03.2020 09:00:00 9,7 2,8 8,7 12,7 13,9 10 5 16 8 NNW 1010,7 30 0 0,0
27.03.2020 08:00:00 9,2 4,2 8,1 12,7 13,9 8 4 11 6 NW 1010,3 20 0 0,0
27.03.2020 07:00:00 9,0 3,6 8,0 12,8 13,9 3 2 6 3 N 1010,1 20 0 0,0
27.03.2020 06:00:00 8,9 4,5 8,2 12,8 13,9 5 3 12 6 WNW 1009,6 20 0 0,0
27.03.2020 05:00:00 8,7 4,1 7,6 12,8 13,9 8 5 16 8 WNW 1009,7 46 0 0,0
27.03.2020 04:00:00 8,1 3,7 7,5 12,8 13,9 10 6 19 10 NW 1009,8 28 0 0,0
27.03.2020 03:00:00 8,1 4,3 7,0 12,8 13,9 9 5 13 7 WNW 1010,5 29 0 0,0
27.03.2020 02:00:00 8,0 3,5 7,3 12,8 13,9 8 4 14 7 WSW 1011,0 20 0 0,0
27.03.2020 01:00:00 8,1 3,5 7,0 12,8 13,9 12 6 15 8 W 1011,2 20 0 0,0
27.03.2020 00:00:00 8,3 4,1 7,3 12,8 13,9 9 5 12 7 W 1011,4 20 0 0,0
26.03.2020 23:00:00 8,6 4,2 6,8 12,8 14,0 8 5 16 8 S 1011,8 20 0 0,0
26.03.2020 22:00:00 8,8 1,5 6,6 12,8 14,0 0 0 10 5 N 1012,1 20 0 0,0
26.03.2020 21:00:00 8,8 1,5 6,2 12,9 14,0 6 3 18 10 NE 1011,9 20 0 0,4
26.03.2020 20:00:00 9,5 0,4 7,7 12,9 14,0 4 2 28 15 W 1011,0 30 0 0,0
26.03.2020 19:00:00 10,5 -1,6 10,1 12,9 14,0 11 6 24 13 E 1010,7 40 0 0,0
26.03.2020 18:00:00 11,2 -1,3 11,2 12,9 14,0 15 8 42 23 ENE 1010,3 40 0 0,0
26.03.2020 17:00:00 11,7 -0,8 12,2 12,9 14,0 22 12 35 19 ENE 1009,8 40 0 0,0
26.03.2020 16:00:00 11,3 -7,1 13,6 13,0 14,1 5 3 11 6 SSW 1009,6 40 0 0,0
26.03.2020 15:00:00 11,3 -7,1 14,4 13,0 14,1 5 3 11 6 SSW 1009,9 40 0 0,0
26.03.2020 14:00:00 10,8 -5,7 14,7 13,0 14,1 6 3 13 7 S 1010,4 40 15 0,0
26.03.2020 13:00:00 11,5 -6,9 15,7 13,0 14,1 10 5 22 12 SSE 1010,7 40 54 0,0
26.03.2020 12:00:00 11,1 -3,4 15,4 13,0 14,1 16 8 21 12 SE 1010,8 40 60 0,0
26.03.2020 11:00:00 10,6 -8,7 11,1 13,1 14,1 9 5 16 9 E 1010,7 40 50 0,0
26.03.2020 10:00:00 - - - - - - - - - - - - - -

tt = Température de l'air
td = dewpoint
tt 5cm = Température de l'air 5cm
tt -20cm = Température de l'air -20cm
tt -100cm = Température de l'air -100cm
ff = Vitesse du vent
fx = gusts
dd = Direction du vent
ppp = reduced air pressure
vv = visibility
sd = Ensoleillement
rr = Quantités de précipitations

stations d'obs. à proximité